Location: ??? ???
(33.4974°N, 35.4618°E)
Time: 02:14:19
(UTC+00:00)

OAO 2 Rocket - Pass Details

Date: 29 October 2020
Orbit: 676 x 746 km, 35.0° (Epoch: 25 November)

Event Time Altitude Azimuth Distance (km) Brightness Sun altitude
Rises 17:05:13 0° 279° (W) 3,050 7.8 -29.0°
Reaches altitude 10° 17:07:38 10° 281° (W) 2,124 6.7 -29.5°
Enters shadow 17:11:09 46° 287° (WNW) 905 4.1 -30.2°
